Weather History for Ankeny, IA

Change the Weather History Date:

Sunday, February 17, 2013

  Actual Average (KDSM) Record (KDSM)
Temperature  
Mean Temperature 32 °F 28 °F  
Max Temperature 46 °F 37 °F 68 °F (1981)
Min Temperature 19 °F 19 °F -20 °F (1958)
Degree Days  
Heating Degree Days 32 37  
Month to date heating degree days 670  
Since 1 July heating degree days 4450  
Cooling Degree Days 0 0  
Month to date cooling degree days 0  
Year to date cooling degree days 0  
Moisture  
Dew Point 20 °F    
Average Humidity 63    
Maximum Humidity 86    
Minimum Humidity 37    
Precipitation  
Precipitation 0.00 in 0.04 in 0.93 in (1961)
Month to date precipitation 0.71  
Year to date precipitation 1.71  
Snow  
Snow 0.00 in 0.30 in 5.70 in (2008)
Month to date snowfall 5.2  
Since 1 July snowfall 25.6  
Snow Depth -    
Sea Level Pressure  
Sea Level Pressure 29.91 in    
Wind  
Wind Speed 8 mph (SE)    
Max Wind Speed 21 mph    
Max Gust Speed 25 mph    
Visibility 10 miles    
Events      
T = Trace of Precipitation, MM = Missing Value Source: NWS Daily Summary

Daily Weather History Graph

Daily Weather History Graph

Search for Another Location

Airport:

Trip Planner

Search our weather history database for the weather conditions in past years. The results will help you decide how hot, cold, wet, or windy it might be!

Date:

Astronomy

Feb. 17, 2013 Rise Set
Actual Time 7:06 AM CST 5:50 PM CST
Civil Twilight 6:38 AM CST 6:18 PM CST
Nautical Twilight 6:05 AM CST 6:51 PM CST
Astronomical Twilight 5:33 AM CST 7:23 PM CST
Moon 10:53 AM CST (2/17) 12:53 AM CST (2/17)
Length of Visible Light 11h 40m
Length of Day
10h 43m
Waxing Crescent, 49% of the Moon is Illuminated
Feb 17
Waxing Crescent
Feb 17
First Quarter
Feb 25
Full
Mar 4
Last Quarter
Mar 11
New

Hourly Weather History & Observations

Time (CST) Temp. Windchill Dew Point Humidity Pressure Visibility Wind Dir Wind Speed Gust Speed Precip Events Conditions
12:15 AM 21.2 °F 14.9 °F 15.8 °F 80% 30.10 in 10.0 mi SE 4.6 mph - N/A   Clear
12:35 AM 21.2 °F 16.4 °F 15.8 °F 80% 30.09 in 10.0 mi SE 3.5 mph - N/A   Clear
12:55 AM 21.2 °F 14.9 °F 15.8 °F 80% 30.09 in 10.0 mi SE 4.6 mph - N/A   Clear
1:15 AM 21.2 °F 16.4 °F 15.8 °F 80% 30.08 in 10.0 mi SE 3.5 mph - N/A   Clear
1:35 AM 21.2 °F 14.9 °F 15.8 °F 80% 30.08 in 10.0 mi SE 4.6 mph - N/A   Clear
1:55 AM 21.2 °F 14.9 °F 15.8 °F 80% 30.08 in 10.0 mi SE 4.6 mph - N/A   Clear
2:15 AM 21.2 °F 16.4 °F 15.8 °F 80% 30.08 in 10.0 mi SE 3.5 mph - N/A   Clear
2:35 AM 21.2 °F 14.9 °F 15.8 °F 80% 30.09 in 10.0 mi ESE 4.6 mph - N/A   Clear
2:55 AM 21.2 °F 16.4 °F 15.8 °F 80% 30.09 in 10.0 mi ESE 3.5 mph - N/A   Scattered Clouds
3:15 AM 19.4 °F - 15.8 °F 86% 30.08 in 10.0 mi Calm Calm - N/A   Scattered Clouds
3:35 AM 21.2 °F - 15.8 °F 80% 30.08 in 10.0 mi Calm Calm - N/A   Mostly Cloudy
3:55 AM 21.2 °F 16.4 °F 17.6 °F 86% 30.07 in 10.0 mi ESE 3.5 mph - N/A   Overcast
4:15 AM 21.2 °F 16.4 °F 17.6 °F 86% 30.07 in 10.0 mi SE 3.5 mph - N/A   Overcast
4:35 AM 21.2 °F 12.6 °F 15.8 °F 80% 30.06 in 10.0 mi SE 6.9 mph - N/A   Scattered Clouds
4:55 AM 21.2 °F 13.6 °F 15.8 °F 80% 30.06 in 10.0 mi SE 5.8 mph - N/A   Clear
5:15 AM 19.4 °F 11.5 °F 15.8 °F 86% 30.05 in 10.0 mi ESE 5.8 mph - N/A   Clear
5:35 AM 19.4 °F 11.5 °F 15.8 °F 86% 30.06 in 10.0 mi ESE 5.8 mph - N/A   Clear
5:55 AM 21.2 °F 13.6 °F 15.8 °F 80% 30.06 in 10.0 mi ESE 5.8 mph - N/A   Mostly Cloudy
6:15 AM 19.4 °F 11.5 °F 15.8 °F 86% 30.05 in 10.0 mi ESE 5.8 mph - N/A   Scattered Clouds
6:35 AM 19.4 °F 10.4 °F 15.8 °F 86% 30.04 in 10.0 mi ESE 6.9 mph - N/A   Clear
6:55 AM 19.4 °F 11.5 °F 15.8 °F 86% 30.04 in 10.0 mi SE 5.8 mph - N/A   Scattered Clouds
7:15 AM 19.4 °F 9.5 °F 15.8 °F 86% 30.03 in 10.0 mi SE 8.1 mph - N/A   Mostly Cloudy
7:35 AM 19.4 °F 10.4 °F 15.8 °F 86% 30.03 in 10.0 mi SE 6.9 mph - N/A   Scattered Clouds
7:55 AM 21.2 °F 13.6 °F 15.8 °F 80% 30.02 in 10.0 mi SE 5.8 mph - N/A   Clear
8:15 AM 21.2 °F 13.6 °F 17.6 °F 86% 30.03 in 10.0 mi SE 5.8 mph - N/A   Clear
8:35 AM 24.8 °F 16.1 °F 17.6 °F 74% 30.03 in 10.0 mi SE 8.1 mph - N/A   Clear
8:55 AM 26.6 °F 20.0 °F 19.4 °F 74% 30.03 in 10.0 mi SE 5.8 mph - N/A   Clear
9:15 AM 28.4 °F 21.2 °F 19.4 °F 69% 30.03 in 10.0 mi SE 6.9 mph - N/A   Clear
9:35 AM 30.2 °F 20.8 °F 21.2 °F 69% 30.01 in 10.0 mi SE 11.5 mph - N/A   Clear
9:55 AM 30.2 °F 20.8 °F 21.2 °F 69% 30.00 in 10.0 mi SE 11.5 mph - N/A   Clear
10:15 AM 33.8 °F 25.3 °F 21.2 °F 60% 29.99 in 10.0 mi SE 11.5 mph - N/A   Clear
10:35 AM 33.8 °F 24.3 °F 21.2 °F 60% 29.99 in 10.0 mi SE 13.8 mph 17.3 mph N/A   Clear
10:55 AM 35.6 °F 25.9 °F 21.2 °F 56% 29.98 in 10.0 mi SSE 16.1 mph 20.7 mph N/A   Clear
11:15 AM 37.4 °F 28.5 °F 21.2 °F 52% 29.98 in 10.0 mi SSE 15.0 mph 19.6 mph N/A   Clear
11:35 AM 39.2 °F 30.5 °F 21.2 °F 49% 29.96 in 10.0 mi SSE 16.1 mph 21.9 mph N/A   Clear
11:55 AM 39.2 °F 29.6 °F 19.4 °F 45% 29.94 in 10.0 mi South 19.6 mph 24.2 mph N/A   Clear
12:15 PM 41.0 °F 32.2 °F 21.2 °F 45% 29.92 in 10.0 mi SSE 18.4 mph 23.0 mph N/A   Clear
12:55 PM 42.8 °F 35.4 °F 21.2 °F 42% 29.90 in 10.0 mi SE 15.0 mph 23.0 mph N/A   Clear
1:15 PM 44.6 °F 38.1 °F 19.4 °F 37% 29.88 in 10.0 mi SSE 13.8 mph 24.2 mph N/A   Clear
1:35 PM 44.6 °F 37.4 °F 19.4 °F 37% 29.87 in 10.0 mi SE 16.1 mph - N/A   Clear
1:55 PM 44.6 °F 37.8 °F 21.2 °F 39% 29.86 in 10.0 mi SSE 15.0 mph 20.7 mph N/A   Clear
2:15 PM 46.4 °F 40.1 °F 21.2 °F 37% 29.85 in 10.0 mi SSE 15.0 mph 25.3 mph N/A   Clear
2:35 PM 46.4 °F 39.5 °F 21.2 °F 37% 29.83 in 10.0 mi SSE 17.3 mph 21.9 mph N/A   Clear
2:55 PM 46.4 °F 40.1 °F 21.2 °F 37% 29.82 in 10.0 mi SSE 15.0 mph 24.2 mph N/A   Clear
3:15 PM 46.4 °F 38.7 °F 21.2 °F 37% 29.81 in 10.0 mi SSE 20.7 mph 24.2 mph N/A   Clear
3:35 PM 46.4 °F 39.5 °F 21.2 °F 37% 29.81 in 10.0 mi SE 17.3 mph 23.0 mph N/A   Clear
3:55 PM 46.4 °F 40.4 °F 21.2 °F 37% 29.80 in 10.0 mi SSE 13.8 mph 25.3 mph N/A   Clear
4:15 PM 46.4 °F 40.4 °F 21.2 °F 37% 29.79 in 10.0 mi SSE 13.8 mph 19.6 mph N/A   Clear
4:35 PM 44.6 °F 37.2 °F 21.2 °F 39% 29.79 in 10.0 mi SE 17.3 mph 24.2 mph N/A   Clear
4:55 PM 44.6 °F 39.2 °F 21.2 °F 39% 29.78 in 10.0 mi SE 10.4 mph 15.0 mph N/A   Clear
5:15 PM 44.6 °F 38.8 °F 23.0 °F 43% 29.78 in 10.0 mi SE 11.5 mph - N/A   Clear
5:35 PM 42.8 °F 36.2 °F 23.0 °F 46% 29.76 in 10.0 mi SE 12.7 mph - N/A   Clear
5:55 PM 41.0 °F 34.3 °F 23.0 °F 49% 29.77 in 10.0 mi SE 11.5 mph - N/A   Clear
6:15 PM 41.0 °F 34.3 °F 23.0 °F 49% 29.76 in 10.0 mi SE 11.5 mph - N/A   Clear
6:35 PM 41.0 °F 33.9 °F 23.0 °F 49% 29.76 in 10.0 mi SE 12.7 mph - N/A   Clear
6:55 PM 41.0 °F 32.8 °F 23.0 °F 49% 29.75 in 10.0 mi SE 16.1 mph - N/A   Clear
7:15 PM 41.0 °F 33.9 °F 23.0 °F 49% 29.74 in 10.0 mi SE 12.7 mph 19.6 mph N/A   Clear
7:35 PM 39.2 °F 32.5 °F 23.0 °F 52% 29.74 in 10.0 mi SE 10.4 mph - N/A   Clear
7:55 PM 39.2 °F 32.0 °F 24.8 °F 56% 29.73 in 10.0 mi SE 11.5 mph 18.4 mph N/A   Clear
8:15 PM 37.4 °F 29.8 °F 24.8 °F 60% 29.73 in 10.0 mi SE 11.5 mph - N/A   Clear
8:35 PM 37.4 °F 30.3 °F 24.8 °F 60% 29.72 in 10.0 mi SE 10.4 mph - N/A   Clear
8:55 PM 37.4 °F 29.8 °F 24.8 °F 60% 29.73 in 10.0 mi SE 11.5 mph 17.3 mph N/A   Clear
9:15 PM 37.4 °F 30.3 °F 24.8 °F 60% 29.73 in 10.0 mi SE 10.4 mph - N/A   Clear
9:35 PM 37.4 °F 30.3 °F 24.8 °F 60% 29.72 in 10.0 mi SSE 10.4 mph - N/A   Clear
9:55 PM 35.6 °F 27.5 °F 24.8 °F 65% 29.71 in 10.0 mi SSE 11.5 mph - N/A   Clear
10:15 PM 35.6 °F 27.5 °F 23.0 °F 60% 29.70 in 10.0 mi SSE 11.5 mph - N/A   Clear
10:35 PM 35.6 °F 28.6 °F 23.0 °F 60% 29.69 in 10.0 mi SSE 9.2 mph - N/A   Clear
10:55 PM 35.6 °F 28.6 °F 23.0 °F 60% 29.68 in 10.0 mi SE 9.2 mph - N/A   Clear
11:15 PM 35.6 °F 28.0 °F 23.0 °F 60% 29.67 in 10.0 mi SE 10.4 mph - N/A   Clear
11:35 PM 35.6 °F 28.6 °F 23.0 °F 60% 29.66 in 10.0 mi SE 9.2 mph - N/A   Clear
11:55 PM 35.6 °F 29.2 °F 23.0 °F 60% 29.65 in 10.0 mi SE 8.1 mph - N/A   Clear